Date,Installs,Update checks
2018-05-24,39,4
2018-05-25,56,29
2018-05-26,21,43
2018-05-27,30,46
2018-05-28,38,79
2018-05-29,46,108
2018-05-30,37,126
2018-05-31,25,132
2018-06-01,23,139
2018-06-02,23,136
2018-06-03,16,113
2018-06-04,24,135
2018-06-05,28,167
2018-06-06,26,166
2018-06-07,20,162
2018-06-08,29,180
2018-06-09,20,140
2018-06-10,20,160
2018-06-11,27,204
2018-06-12,45,205
2018-06-13,29,203
2018-06-14,27,228
2018-06-15,21,220
2018-06-16,20,172
2018-06-17,23,183
2018-06-18,18,194
2018-06-19,19,271
2018-06-20,20,138
2018-06-21,16,142
2018-06-22,18,275
2018-06-23,26,234
2018-06-24,34,230
2018-06-25,23,281
2018-06-26,21,294
2018-06-27,15,300
2018-06-28,26,300
2018-06-29,15,284
2018-06-30,18,259
2018-07-01,19,267
2018-07-02,20,319
2018-07-03,27,320
2018-07-04,16,360
2018-07-05,14,336
2018-07-06,16,329
2018-07-07,19,285
2018-07-08,12,300
2018-07-09,19,355
2018-07-10,22,350
2018-07-11,18,340
2018-07-12,18,345
2018-07-13,12,365
2018-07-14,19,286
2018-07-15,14,313
2018-07-16,22,351
2018-07-17,28,364
2018-07-18,20,379
2018-07-19,20,385
2018-07-20,19,377
2018-07-21,9,331
2018-07-22,16,318
2018-07-23,16,373
2018-07-24,30,419
2018-07-25,24,388
2018-07-26,14,415
2018-07-27,20,391
2018-07-28,14,366
2018-07-29,16,355
2018-07-30,21,448
2018-07-31,27,420
2018-08-01,29,438
2018-08-02,36,474
2018-08-03,34,450
2018-08-04,24,384
2018-08-05,31,370
2018-08-06,37,478
2018-08-07,33,466
2018-08-08,35,466
2018-08-09,27,474
2018-08-10,31,483
2018-08-11,31,404
2018-08-12,27,444
2018-08-13,41,523
2018-08-14,50,511
2018-08-15,48,524
2018-08-16,40,531
2018-08-17,38,545
2018-08-18,37,493
2018-08-19,29,474
2018-08-20,40,601
2018-08-21,46,594
2018-08-22,47,601
2018-08-23,43,590
2018-08-24,27,590
2018-08-25,28,499
2018-08-26,22,544
2018-08-27,40,660
2018-08-28,42,635
2018-08-29,37,645
2018-08-30,39,670
2018-08-31,26,632
2018-09-01,30,555
2018-09-02,16,564
2018-09-03,37,688
2018-09-04,47,701
2018-09-05,52,694
2018-09-06,34,726
2018-09-07,34,666
2018-09-08,27,626
2018-09-09,21,628
2018-09-10,31,760
2018-09-11,33,724
2018-09-12,46,767
2018-09-13,40,740
2018-09-14,39,771
2018-09-15,36,659
2018-09-16,27,620
2018-09-17,33,767
2018-09-18,36,798
2018-09-19,39,796
2018-09-20,44,814
2018-09-21,42,743
2018-09-22,26,677
2018-09-23,25,622
2018-09-24,22,683
2018-09-25,23,851
2018-09-26,29,814
2018-09-27,31,823
2018-09-28,18,827
2018-09-29,20,792
2018-09-30,23,757
2018-10-01,26,612
2018-10-02,23,578
2018-10-03,19,581
2018-10-04,21,609
2018-10-05,26,622
2018-10-06,20,668
2018-10-07,24,735
2018-10-08,47,872
2018-10-09,30,885
2018-10-10,40,860
2018-10-11,30,895
2018-10-12,24,857
2018-10-13,29,762
2018-10-14,26,762
2018-10-15,32,922
2018-10-16,38,886
2018-10-17,21,910
2018-10-18,22,881
2018-10-19,18,892
2018-10-20,21,758
2018-10-21,35,738
2018-10-22,37,969
2018-10-23,40,916
2018-10-24,34,969
2018-10-25,35,912
2018-10-26,35,913
2018-10-27,32,783
2018-10-28,39,805
2018-10-29,42,994
2018-10-30,37,1007
2018-10-31,39,971
2018-11-01,37,983
2018-11-02,26,935
2018-11-03,19,822
2018-11-04,35,813
2018-11-05,39,1035
2018-11-06,43,978
2018-11-07,28,1012
2018-11-08,24,994
2018-11-09,31,1000
2018-11-10,28,842
2018-11-11,20,882
2018-11-12,29,1045
2018-11-13,31,1030
2018-11-14,42,994
2018-11-15,35,1018
2018-11-16,24,991
2018-11-17,36,870
2018-11-18,28,877
2018-11-19,46,1102
2018-11-20,52,1068
2018-11-21,40,1050
2018-11-22,32,1071
2018-11-23,28,1033
2018-11-24,36,885
2018-11-25,20,928
2018-11-26,36,1122
2018-11-27,27,1085
2018-11-28,43,1091
2018-11-29,39,1110
2018-11-30,36,1111
2018-12-01,26,965
2018-12-02,28,929
2018-12-03,45,1169
2018-12-04,40,1128
2018-12-05,42,1150
2018-12-06,36,1130
2018-12-07,35,1139
2018-12-08,33,975
2018-12-09,26,1008
2018-12-10,23,1196
2018-12-11,30,1120
2018-12-12,26,1166
2018-12-13,40,1157
2018-12-14,34,1094
2018-12-15,32,1008
2018-12-16,25,992
2018-12-17,48,1225
2018-12-18,31,1164
2018-12-19,39,1209
2018-12-20,40,1130
2018-12-21,32,1123
2018-12-22,27,950
2018-12-23,29,1004
2018-12-24,38,1261
2018-12-25,35,1162
2018-12-26,40,1221
2018-12-27,37,1189
2018-12-28,52,1193
2018-12-29,31,1174
2018-12-30,21,966
2018-12-31,15,919
2019-01-01,18,1028
2019-01-02,39,1281
2019-01-03,51,1240
2019-01-04,49,1266
2019-01-05,29,1089
2019-01-06,35,1103
2019-01-07,46,1354
2019-01-08,39,1244
2019-01-09,51,1315
2019-01-10,34,1271
2019-01-11,35,1210
2019-01-12,21,1126
2019-01-13,19,1084
2019-01-14,33,1348
2019-01-15,29,1251
2019-01-16,28,1384
2019-01-17,36,1226
2019-01-18,31,1273
2019-01-19,20,1112
2019-01-20,20,1077
2019-01-21,28,1305
2019-01-22,32,1280
2019-01-23,37,1255
2019-01-24,23,1273
2019-01-25,45,1233
2019-01-26,21,1102
2019-01-27,22,1050
2019-01-28,17,1274
2019-01-29,23,1176
2019-01-30,22,1157
2019-01-31,20,1071
2019-02-01,20,1007
2019-02-02,11,944
2019-02-03,10,842
2019-02-04,7,733
2019-02-05,5,703
2019-02-06,7,717
2019-02-07,6,726
2019-02-08,8,787
2019-02-09,11,853
2019-02-10,10,885
2019-02-11,16,1096
2019-02-12,30,1082
2019-02-13,30,1203
2019-02-14,28,1175
2019-02-15,26,1224
2019-02-16,30,1110
2019-02-17,23,1108
2019-02-18,42,1391
2019-02-19,25,1308
2019-02-20,41,1342
2019-02-21,31,1356
2019-02-22,26,1325
2019-02-23,28,1153
2019-02-24,17,1204
2019-02-25,46,1441
2019-02-26,35,1361
2019-02-27,39,1373
2019-02-28,51,1369
2019-03-01,42,1393
2019-03-02,40,1159
2019-03-03,44,1225
2019-03-04,54,1468
2019-03-05,50,1476
2019-03-06,46,1496
2019-03-07,37,1503
2019-03-08,38,1384
2019-03-09,33,1263
2019-03-10,36,1252
2019-03-11,31,1535
2019-03-12,46,1516
2019-03-13,59,1527
2019-03-14,44,1482
2019-03-15,35,1501
2019-03-16,36,1340
2019-03-17,20,1317
2019-03-18,26,1607
2019-03-19,43,1561
2019-03-20,34,1566
2019-03-21,29,1577
2019-03-22,40,1505
2019-03-23,24,1329
2019-03-24,25,1326
2019-03-25,29,1619
2019-03-26,30,1587
2019-03-27,34,1570
2019-03-28,38,1572
2019-03-29,27,1528
2019-03-30,23,1280
2019-03-31,21,1321
2019-04-01,31,1607
2019-04-02,30,1583
2019-04-03,16,1575
2019-04-04,17,1466
2019-04-05,16,1184
2019-04-06,24,1195
2019-04-07,31,1376
2019-04-08,36,1664
2019-04-09,41,1631
2019-04-10,44,1652
2019-04-11,41,1599
2019-04-12,35,1562
2019-04-13,19,1387
2019-04-14,35,1375
2019-04-15,35,1761
2019-04-16,44,1651
2019-04-17,36,1655
2019-04-18,32,1697
2019-04-19,32,1689
2019-04-20,42,1406
2019-04-21,31,1486
2019-04-22,49,1761
2019-04-23,41,1724
2019-04-24,34,1696
2019-04-25,36,1711
2019-04-26,46,1692
2019-04-27,37,1477
2019-04-28,25,1726
2019-04-29,36,1702
2019-04-30,28,1612
2019-05-01,29,1293
2019-05-02,26,1250
2019-05-03,29,1418
2019-05-04,28,1445
2019-05-05,39,1874
2019-05-06,43,1807
2019-05-07,41,1809
2019-05-08,39,1765
2019-05-09,31,1722
2019-05-10,32,1753
2019-05-11,24,1511
2019-05-12,26,1614
2019-05-13,34,1795
2019-05-14,33,1796
2019-05-15,54,1770
2019-05-16,49,1772
2019-05-17,38,1701
2019-05-18,28,1537
2019-05-19,37,1511
2019-05-20,36,1839
2019-05-21,40,1763
2019-05-22,35,1763
2019-05-23,37,1771
2019-05-24,26,1702
2019-05-25,23,1479
2019-05-26,35,1489
2019-05-27,37,1824
2019-05-28,40,1745
2019-05-29,33,1770
2019-05-30,34,1762
2019-05-31,26,1723
2019-06-01,23,1456
2019-06-02,24,1512
2019-06-03,35,1763
2019-06-04,39,1765
2019-06-05,25,1722
2019-06-06,25,1639
2019-06-07,19,1277
2019-06-08,28,1328
2019-06-09,35,1512
2019-06-10,28,1834
2019-06-11,19,1722
2019-06-12,25,1696
2019-06-13,20,1705
2019-06-14,23,1665
2019-06-15,16,1421
2019-06-16,22,1437
2019-06-17,29,1762
2019-06-18,33,1640
2019-06-19,36,1723
2019-06-20,24,1664
2019-06-21,18,1638
2019-06-22,17,1358
2019-06-23,23,1386
2019-06-24,23,1767
2019-06-25,32,1695
2019-06-26,26,1604
2019-06-27,17,1643
2019-06-28,19,1633
2019-06-29,16,1366
2019-06-30,24,1345
2019-07-01,23,1691
2019-07-02,42,1589
2019-07-03,35,1634
2019-07-04,31,1652
2019-07-05,29,1561
2019-07-06,17,1383
2019-07-07,15,1379
2019-07-08,26,1661
2019-07-09,22,1652
2019-07-10,33,1628
2019-07-11,31,1575
2019-07-12,21,1591
2019-07-13,19,1387
2019-07-14,11,1436
2019-07-15,19,1657
2019-07-16,25,1635
2019-07-17,23,1647
2019-07-18,17,1542
2019-07-19,16,1526
2019-07-20,17,1365
2019-07-21,15,1343
2019-07-22,31,1660
2019-07-23,28,1580
2019-07-24,17,1570
2019-07-25,22,1596
2019-07-26,24,1539
2019-07-27,17,1335
2019-07-28,17,1334
2019-07-29,27,1649
2019-07-30,29,1563
2019-07-31,32,1640
2019-08-01,32,1551
2019-08-02,28,1580
2019-08-03,22,1292
2019-08-04,25,1313
2019-08-05,23,1625
2019-08-06,30,1582
2019-08-07,25,1590
2019-08-08,25,1652
2019-08-09,17,1555
2019-08-10,19,1380
2019-08-11,14,1344
2019-08-12,40,1682
2019-08-13,33,1599
2019-08-14,28,1612
2019-08-15,23,1613
2019-08-16,22,1571
2019-08-17,18,1322
2019-08-18,17,1362
2019-08-19,28,1629
2019-08-20,36,1617
2019-08-21,22,1583
2019-08-22,23,1585
2019-08-23,25,1519
2019-08-24,21,1329
2019-08-25,13,1393
2019-08-26,23,1695
2019-08-27,19,1565
2019-08-28,14,1631
2019-08-29,16,1630
2019-08-30,8,1625
2019-08-31,9,1361
2019-09-01,6,1377
2019-09-02,14,1703
2019-09-03,14,1660
2019-09-04,20,1664
2019-09-05,20,1654
2019-09-06,15,1580
2019-09-07,8,1322
2019-09-08,13,1425
2019-09-09,20,1693
2019-09-10,23,1655
2019-09-11,20,1619
2019-09-12,10,1544
2019-09-13,6,1131
2019-09-14,16,1250
2019-09-15,15,1385
2019-09-16,13,1710
2019-09-17,17,1628
2019-09-18,15,1586
2019-09-19,7,1602
2019-09-20,10,1567
2019-09-21,19,1408
2019-09-22,6,1388
2019-09-23,15,1648
2019-09-24,21,1635
2019-09-25,18,1570
2019-09-26,16,1525
2019-09-27,14,1588
2019-09-28,7,1312
2019-09-29,8,1549
2019-09-30,9,1329
2019-10-01,2,1079
2019-10-02,4,1018
2019-10-03,8,1040
2019-10-04,9,1092
2019-10-05,6,1096
2019-10-06,10,1163
2019-10-07,8,1316
2019-10-08,19,1640
2019-10-09,16,1607
2019-10-10,11,1597
2019-10-11,16,1551
2019-10-12,9,1498
2019-10-13,9,1348
2019-10-14,8,1614
2019-10-15,6,1540
2019-10-16,7,1528
2019-10-17,6,1534
2019-10-18,12,1469
2019-10-19,8,1297
2019-10-20,6,1316
2019-10-21,8,1630
2019-10-22,15,1562
2019-10-23,6,1584
2019-10-24,10,1567
2019-10-25,7,1439
2019-10-26,6,1295
2019-10-27,5,1290
2019-10-28,6,1584
2019-10-29,10,1589
2019-10-30,10,1479
2019-10-31,7,1496
2019-11-01,3,1466
2019-11-02,1,1235
2019-11-03,7,1160
2019-11-04,8,1641
2019-11-05,10,1519
2019-11-06,12,1545
2019-11-07,13,1522
2019-11-08,2,1490
2019-11-09,3,1290
2019-11-10,6,1315
2019-11-11,10,1602
2019-11-12,9,1536
2019-11-13,7,1514
2019-11-14,6,1451
2019-11-15,5,1455
2019-11-16,6,1296
2019-11-17,8,1306
2019-11-18,8,1596
2019-11-19,6,1481
2019-11-20,9,1467
2019-11-21,8,1453
2019-11-22,9,1415
2019-11-23,3,1186
2019-11-24,9,1144
2019-11-25,6,1558
2019-11-26,12,1452
2019-11-27,8,1496
2019-11-28,13,1506
2019-11-29,12,1398
2019-11-30,7,1253
2019-12-01,7,1289
2019-12-02,10,1562
2019-12-03,9,1466
2019-12-04,11,1471
2019-12-05,11,1478
2019-12-06,10,1422
2019-12-07,12,1181
2019-12-08,10,1282
2019-12-09,15,1616
2019-12-10,12,1506
2019-12-11,10,1540
2019-12-12,12,1451
2019-12-13,7,1478
2019-12-14,5,1200
2019-12-15,7,1226
2019-12-16,13,1473
2019-12-17,19,1487
2019-12-18,11,1458
2019-12-19,8,1432
2019-12-20,10,1454
2019-12-21,4,1246
2019-12-22,10,1237
2019-12-23,11,1536
2019-12-24,19,1494
2019-12-25,9,1505
2019-12-26,12,1463
2019-12-27,9,1450
2019-12-28,8,1287
2019-12-29,9,1289
2019-12-30,8,1536
2019-12-31,10,1426
2020-01-01,5,1195
2020-01-02,13,1517
2020-01-03,10,1434
2020-01-04,8,1306
2020-01-05,11,1257
2020-01-06,11,1508
2020-01-07,7,1505
2020-01-08,14,1491
2020-01-09,12,1473
2020-01-10,10,1446
2020-01-11,5,1209
2020-01-12,10,1241
2020-01-13,5,1507
2020-01-14,5,1374
2020-01-15,6,1347
2020-01-16,9,1366
2020-01-17,5,1363
2020-01-18,10,1084
2020-01-19,2,1294
2020-01-20,5,1207
2020-01-21,4,1122
2020-01-22,2,1061
2020-01-23,5,943
2020-01-24,0,842
2020-01-25,2,927
2020-01-26,9,960
2020-01-27,3,1023
2020-01-28,3,1083
2020-01-29,13,1107
2020-01-30,10,1133
2020-01-31,2,1198
2020-02-01,6,1190
2020-02-02,5,1244
2020-02-03,11,1293
2020-02-04,10,1356
2020-02-05,16,1327
2020-02-06,13,1374
2020-02-07,6,1369
2020-02-08,12,417
2020-02-09,10,539
2020-02-10,11,1603
2020-02-11,12,1464
2020-02-12,23,1501
2020-02-13,13,1494
2020-02-14,7,1481
2020-02-15,13,1458
2020-02-16,14,1438
2020-02-17,16,1585
2020-02-18,17,1572
2020-02-19,19,1573
2020-02-20,13,1631
2020-02-21,16,1574
2020-02-22,20,1452
2020-02-23,19,1484
2020-02-24,21,1679
2020-02-25,17,1610
2020-02-26,29,1657
2020-02-27,17,1665
2020-02-28,6,1641
2020-02-29,24,1506
2020-03-01,29,1523
2020-03-02,20,1746
2020-03-03,23,1677
2020-03-04,21,1679
2020-03-05,16,1749
2020-03-06,22,1710
2020-03-07,17,1553
2020-03-08,20,1628
2020-03-09,20,1829
2020-03-10,15,1806
2020-03-11,24,1776
2020-03-12,18,1757
2020-03-13,24,1709
2020-03-14,22,1543
2020-03-15,22,1521
2020-03-16,10,1860
2020-03-17,9,1682
2020-03-18,10,1745
2020-03-19,19,1745
2020-03-20,10,1692
2020-03-21,9,1519
2020-03-22,12,1525
2020-03-23,10,1775
2020-03-24,15,1735
2020-03-25,13,1744
2020-03-26,10,1781
2020-03-27,10,1732
2020-03-28,11,1498
2020-03-29,13,1536
2020-03-30,10,1789
2020-03-31,10,1744
2020-04-01,15,1684
2020-04-02,14,1712
2020-04-03,8,1693
2020-04-04,12,1433
2020-04-05,7,1426
2020-04-06,14,1506
2020-04-07,15,1710
2020-04-08,11,1694
2020-04-09,17,1731
2020-04-10,12,1643
2020-04-11,13,1523
2020-04-12,10,1486
2020-04-13,11,1695
2020-04-14,14,1727
2020-04-15,12,1712
2020-04-16,8,1758
2020-04-17,8,1666
2020-04-18,8,1497
2020-04-19,11,1474
2020-04-20,14,1771
2020-04-21,38,1716
2020-04-22,174,1803
2020-04-23,45,1757
2020-04-24,33,1696
2020-04-25,22,1599
2020-04-26,15,1762
2020-04-27,15,1782
2020-04-28,14,1776
2020-04-29,13,1807
2020-04-30,13,1703
2020-05-01,11,1453
2020-05-02,10,1396
2020-05-03,7,1457
2020-05-04,10,1508
2020-05-05,10,1639
2020-05-06,19,1841
2020-05-07,8,1820
2020-05-08,13,1784
2020-05-09,8,1742
2020-05-10,10,1571
2020-05-11,12,1826
2020-05-12,10,1784
2020-05-13,9,1795
2020-05-14,5,1757
2020-05-15,9,1769
2020-05-16,4,1527
2020-05-17,10,1543
2020-05-18,7,1809
2020-05-19,4,1772
2020-05-20,13,1712
2020-05-21,7,1763
2020-05-22,3,1719
2020-05-23,4,1484
2020-05-24,6,1497
2020-05-25,13,1769
2020-05-26,9,1774
2020-05-27,7,1714
2020-05-28,10,1733
2020-05-29,9,1672
2020-05-30,3,1530
2020-05-31,6,1523
2020-06-01,7,1761
2020-06-02,5,1737
2020-06-03,5,1718
2020-06-04,9,1667
2020-06-05,8,1689
2020-06-06,9,1477
2020-06-07,7,1430
2020-06-08,4,1691
2020-06-09,16,1678
2020-06-10,8,1658
2020-06-11,7,1698
2020-06-12,5,1620
2020-06-13,7,1452
2020-06-14,8,1510
2020-06-15,13,1706
2020-06-16,12,1629
2020-06-17,6,1604
2020-06-18,7,1589
2020-06-19,6,1582
2020-06-20,5,1401
2020-06-21,6,1390
2020-06-22,8,1614
2020-06-23,3,1632
2020-06-24,6,1518
2020-06-25,7,1296
2020-06-26,8,1295
2020-06-27,2,1353
2020-06-28,4,1644
2020-06-29,10,1570
2020-06-30,3,1555
2020-07-01,7,1557
2020-07-02,4,1528
2020-07-03,5,1510
2020-07-04,5,1355
2020-07-05,7,1362
2020-07-06,5,1536
2020-07-07,9,1496
2020-07-08,3,1516
2020-07-09,6,1484
2020-07-10,4,1444
2020-07-11,6,1310
2020-07-12,4,1316
2020-07-13,3,1557
2020-07-14,4,1457
2020-07-15,8,1463
2020-07-16,7,1457
2020-07-17,4,1394
2020-07-18,5,1260
2020-07-19,6,1263
2020-07-20,5,1471
2020-07-21,7,1442
2020-07-22,5,1399
2020-07-23,6,1488
2020-07-24,7,1407
2020-07-25,4,1248
2020-07-26,2,1269
2020-07-27,4,1430
2020-07-28,10,1440
2020-07-29,10,1431
2020-07-30,28,1451
2020-07-31,3,1425
2020-08-01,2,1266
2020-08-02,8,1254
2020-08-03,10,1499
2020-08-04,7,1433
2020-08-05,4,1408
2020-08-06,12,1381
2020-08-07,6,1398
2020-08-08,4,1238
2020-08-09,3,1224
2020-08-10,9,1474
2020-08-11,8,1493
2020-08-12,12,1384
2020-08-13,11,1421
2020-08-14,9,1394
2020-08-15,2,1271
2020-08-16,10,1250
2020-08-17,6,1438
2020-08-18,7,1419
2020-08-19,9,1428
2020-08-20,1,1429
2020-08-21,10,1426
2020-08-22,5,1210
2020-08-23,2,1264
2020-08-24,5,1479
2020-08-25,4,1422
2020-08-26,8,1425
2020-08-27,6,1428
2020-08-28,5,1375
2020-08-29,3,1218
2020-08-30,4,1224
2020-08-31,7,1456
2020-09-01,4,1441
2020-09-02,6,1398
2020-09-03,5,1392
2020-09-04,5,1399
2020-09-05,9,1277
2020-09-06,9,1229
2020-09-07,7,1462
2020-09-08,6,1388
2020-09-09,10,1458
2020-09-10,7,1348
2020-09-11,8,1342
2020-09-12,5,1271
2020-09-13,4,1207
2020-09-14,8,1515
2020-09-15,5,1409
2020-09-16,8,1419
2020-09-17,13,1433
2020-09-18,3,1332
2020-09-19,3,1198
2020-09-20,1,1248
2020-09-21,8,1440
2020-09-22,5,1447
2020-09-23,10,1422
2020-09-24,6,1435
2020-09-25,6,1385
2020-09-26,10,1255
2020-09-27,9,1458
2020-09-28,8,1402
2020-09-29,6,1367
2020-09-30,5,1236
2020-10-01,7,979
2020-10-02,10,978
2020-10-03,4,1030
2020-10-04,6,982
2020-10-05,8,1084
2020-10-06,4,1099
2020-10-07,5,1161
2020-10-08,4,1225
2020-10-09,9,1432
2020-10-10,7,1322
2020-10-11,14,1260
2020-10-12,7,1410
2020-10-13,9,1464
2020-10-14,9,1422
2020-10-15,11,1431
2020-10-16,14,1356
2020-10-17,7,1192
2020-10-18,12,1244
2020-10-19,16,1497
2020-10-20,20,1435
2020-10-21,22,1422
2020-10-22,13,1438
2020-10-23,15,1404
2020-10-24,7,1164
2020-10-25,10,1251
2020-10-26,25,1445
2020-10-27,21,1454
2020-10-28,17,1431
2020-10-29,16,1416
2020-10-30,12,1440
2020-10-31,8,1229
2020-11-01,6,1220
2020-11-02,16,1490
2020-11-03,12,1465
2020-11-04,9,1442
2020-11-05,15,1421
2020-11-06,12,1436
2020-11-07,7,1218
2020-11-08,8,1252
2020-11-09,9,1495
2020-11-10,8,1462
2020-11-11,7,1436
2020-11-12,13,1431
2020-11-13,10,1417
2020-11-14,15,1215
2020-11-15,10,1273
2020-11-16,18,1544
2020-11-17,9,1440
2020-11-18,14,1457
2020-11-19,13,1485
2020-11-20,10,1431
2020-11-21,8,1285
2020-11-22,10,1289
2020-11-23,11,1492
2020-11-24,11,1494
2020-11-25,8,1441
2020-11-26,11,1446
2020-11-27,16,1457
2020-11-28,7,1252
2020-11-29,13,1301
2020-11-30,15,1565
2020-12-01,16,1544
2020-12-02,14,1504
2020-12-03,14,1487
2020-12-04,11,1433
2020-12-05,14,1263
2020-12-06,10,1282
2020-12-07,16,1588
2020-12-08,16,1534
2020-12-09,11,1567
2020-12-10,16,1486
2020-12-11,15,1495
2020-12-12,8,1322
2020-12-13,15,1359
2020-12-14,22,1651
2020-12-15,20,1559
2020-12-16,9,1528
2020-12-17,15,1573
2020-12-18,13,1491
2020-12-19,10,1389
2020-12-20,8,1330
2020-12-21,13,1636
2020-12-22,21,1554
2020-12-23,19,1563
2020-12-24,12,1584
2020-12-25,13,1454
2020-12-26,19,1383
2020-12-27,12,1360
2020-12-28,13,1698
2020-12-29,15,1622
2020-12-30,11,1614
2020-12-31,10,1505
2021-01-01,9,1197
2021-01-02,9,1329
2021-01-03,9,1397
2021-01-04,13,1718
2021-01-05,14,1686
2021-01-06,16,1616
2021-01-07,16,1644
2021-01-08,16,1569
2021-01-09,32,1395
2021-01-10,15,1364
2021-01-11,8,1667
2021-01-12,19,1579
2021-01-13,18,1583
2021-01-14,22,1533
2021-01-15,8,1581
2021-01-16,18,1394
2021-01-17,16,1388
2021-01-18,10,1672
2021-01-19,16,1591
2021-01-20,10,1640
2021-01-21,8,1667
2021-01-22,10,1622
2021-01-23,5,1443
2021-01-24,4,1441
2021-01-25,8,1692
2021-01-26,5,1681
2021-01-27,14,1615
2021-01-28,8,1639
2021-01-29,7,1611
2021-01-30,8,1315
2021-01-31,5,1380
2021-02-01,6,1718
2021-02-02,9,1644
2021-02-03,10,1636
2021-02-04,9,1670
2021-02-05,9,1558
2021-02-06,9,1429
2021-02-07,10,1528
2021-02-08,8,1416
2021-02-09,6,1054
2021-02-10,2,942
2021-02-11,1,831
2021-02-12,4,833
2021-02-13,5,789
2021-02-14,6,613
2021-02-15,9,1236
2021-02-16,2,1224
2021-02-17,6,1323
2021-02-18,7,1520
2021-02-19,10,1571
2021-02-20,5,1533
2021-02-21,8,1484
2021-02-22,11,1542
2021-02-23,7,1671
2021-02-24,9,1613
2021-02-25,13,1700
2021-02-26,10,1686
2021-02-27,13,1464
2021-02-28,16,1521
2021-03-01,15,1806
2021-03-02,16,1822
2021-03-03,16,1763
2021-03-04,13,1789
2021-03-05,14,1782
2021-03-06,10,1574
2021-03-07,19,1603
2021-03-08,19,1455
2021-03-09,15,1447
2021-03-10,25,1454
2021-03-11,15,1579
2021-03-12,23,1420
2021-03-13,14,1271
2021-03-14,11,1294
2021-03-15,20,1348
2021-03-16,23,1567
2021-03-17,30,1339
2021-03-18,17,1372
2021-03-19,17,1281
2021-03-20,15,1213
2021-03-21,16,1132
2021-03-22,18,1353
2021-03-23,23,1228
2021-03-24,27,1405
2021-03-25,22,1578
2021-03-26,16,1398
2021-03-27,10,1082
2021-03-28,7,1102
2021-03-29,13,1245
2021-03-30,14,1447
2021-03-31,14,1170
2021-04-01,16,1375
2021-04-02,21,1202
2021-04-03,19,877
2021-04-04,11,1017
2021-04-05,13,1081
2021-04-06,26,1515
2021-04-07,15,1437
2021-04-08,13,1438
2021-04-09,19,1350
2021-04-10,23,1211
2021-04-11,13,1272
2021-04-12,15,1148
2021-04-13,19,1311
2021-04-14,24,1482
2021-04-15,22,1342
2021-04-16,13,2059
2021-04-17,20,1721
2021-04-18,10,1741
2021-04-19,14,2079
2021-04-20,15,2138
2021-04-21,14,2047
2021-04-22,20,1976
2021-04-23,13,2081
2021-04-24,18,1719
2021-04-25,16,2141
2021-04-26,24,2120
2021-04-27,17,2066
2021-04-28,17,2111
2021-04-29,17,2037
2021-04-30,9,1823
2021-05-01,9,1491
2021-05-02,11,1441
2021-05-03,15,1519
2021-05-04,13,1636
2021-05-05,12,1777
2021-05-06,12,2132
2021-05-07,13,2175
2021-05-08,11,2061
2021-05-09,19,1873
2021-05-10,27,2168
2021-05-11,18,2101
2021-05-12,18,2214
2021-05-13,19,2138
2021-05-14,18,2131
2021-05-15,9,1812
2021-05-16,15,1897
2021-05-17,20,2179
2021-05-18,15,2142
2021-05-19,16,2169
2021-05-20,19,2059
2021-05-21,19,2121
2021-05-22,12,2006
2021-05-23,10,2067
2021-05-24,25,2442
2021-05-25,20,2322
2021-05-26,13,2241
2021-05-27,26,2197
2021-05-28,18,2217
2021-05-29,13,1952
2021-05-30,14,1876
2021-05-31,18,2326
2021-06-01,19,2096
2021-06-02,20,2383
2021-06-03,21,2166
2021-06-04,18,2084
2021-06-05,11,1379
2021-06-06,24,1988
2021-06-07,12,2178
2021-06-08,15,2218
2021-06-09,12,2250
2021-06-10,16,2227
2021-06-11,10,1992
2021-06-12,12,1811
2021-06-13,21,1723
2021-06-14,20,1863
2021-06-15,19,2346
2021-06-16,12,2269
2021-06-17,21,2344
2021-06-18,6,2151
2021-06-19,11,1920
2021-06-20,14,1901
2021-06-21,16,2253
2021-06-22,17,2268
2021-06-23,8,2253
2021-06-24,17,2242
2021-06-25,15,2144
2021-06-26,4,1898
2021-06-27,16,1909
2021-06-28,13,2249
2021-06-29,12,2206
2021-06-30,14,2205
2021-07-01,11,2156
2021-07-02,11,2141
2021-07-03,18,1876
2021-07-04,10,1835
2021-07-05,17,2220
2021-07-06,14,2152
2021-07-07,14,2202
2021-07-08,11,2158
2021-07-09,11,2064
2021-07-10,10,1804
2021-07-11,6,1763
2021-07-12,12,2176
2021-07-13,11,2084
2021-07-14,8,2031
2021-07-15,11,2064
2021-07-16,9,2043
2021-07-17,9,1794
2021-07-18,4,84
2021-07-19,8,170
2021-07-20,7,2252
2021-07-21,7,1938
2021-07-22,6,2063
2021-07-23,5,2047
2021-07-24,3,1731
2021-07-25,4,1749
2021-07-26,10,2125
2021-07-27,11,2078
2021-07-28,15,2047
2021-07-29,6,2070
2021-07-30,11,1961
2021-07-31,10,1826
2021-08-01,3,1713
2021-08-02,7,2078
2021-08-03,8,2082
2021-08-04,10,2024
2021-08-05,4,2115
2021-08-06,10,2016
2021-08-07,8,1843
2021-08-08,4,1785
2021-08-09,7,2081
2021-08-10,6,2061
2021-08-11,5,2057
2021-08-12,9,2087
2021-08-13,3,2087
2021-08-14,7,1794
2021-08-15,5,1809
2021-08-16,8,2145
2021-08-17,11,2141
2021-08-18,10,2203
2021-08-19,9,2071
2021-08-20,8,2094
2021-08-21,11,1805
2021-08-22,7,1831
2021-08-23,13,2116
2021-08-24,15,2217
2021-08-25,14,2183
2021-08-26,8,2178
2021-08-27,6,2080
2021-08-28,7,1850
2021-08-29,6,1851
2021-08-30,13,2188
2021-08-31,8,2152
2021-09-01,7,2188
2021-09-02,12,2174
2021-09-03,8,2112
2021-09-04,8,1793
2021-09-05,6,1892
2021-09-06,7,2197
2021-09-07,11,2096
2021-09-08,6,2158
2021-09-09,7,2203
2021-09-10,12,2071
2021-09-11,11,1855
2021-09-12,7,1837
2021-09-13,9,2272
2021-09-14,13,2224
2021-09-15,9,2185
2021-09-16,10,2146
2021-09-17,9,2129
2021-09-18,10,2009
2021-09-19,7,1688
2021-09-20,6,1694
2021-09-21,4,1718
2021-09-22,8,2223
2021-09-23,5,2224
2021-09-24,4,2203
2021-09-25,6,1955
2021-09-26,5,2159
2021-09-27,6,2178
2021-09-28,6,2085
2021-09-29,4,2094
2021-09-30,8,1915
2021-10-01,5,1476
2021-10-02,8,1471
2021-10-03,9,1456
2021-10-04,14,1539
2021-10-05,9,1667
2021-10-06,7,1683
2021-10-07,11,1816
2021-10-08,15,2161
2021-10-09,12,2108
2021-10-10,6,1867
2021-10-11,15,2150
2021-10-12,8,2131
2021-10-13,12,2100
2021-10-14,8,2140
2021-10-15,10,2061
2021-10-16,9,1840
2021-10-17,14,1845
2021-10-18,18,2205
2021-10-19,18,2149
2021-10-20,7,2121
2021-10-21,13,2111
2021-10-22,13,2029
2021-10-23,1,1806
2021-10-24,14,1807
2021-10-25,18,2175
2021-10-26,16,2120
2021-10-27,14,2144
2021-10-28,15,2087
2021-10-29,13,2075
2021-10-30,16,1788
2021-10-31,14,1881
2021-11-01,13,2183
2021-11-02,14,2203
2021-11-03,19,2182
2021-11-04,12,2141
2021-11-05,14,2099
2021-11-06,10,1862
2021-11-07,10,1854
2021-11-08,15,2160
2021-11-09,11,2161
2021-11-10,16,2094
2021-11-11,10,2104
2021-11-12,15,2066
2021-11-13,16,1768
2021-11-14,20,1832
2021-11-15,32,2104
2021-11-16,22,2144
2021-11-17,18,2096
2021-11-18,18,2112
2021-11-19,19,2080
2021-11-20,16,1791
2021-11-21,16,1770
2021-11-22,12,2030
2021-11-23,16,2129
2021-11-24,20,2038
2021-11-25,13,2069
2021-11-26,20,1987
2021-11-27,14,1708
2021-11-28,17,1782
2021-11-29,22,2179
2021-11-30,15,2146
2021-12-01,19,2121
2021-12-02,47,2129
2021-12-03,27,2147
2021-12-04,13,1856
2021-12-05,37,1913